Location: Sungai Igah
(2.7333°N, 114.2500°E)
Time: 11:39:03
(UTC+00:00)

FENGYUN 3A - Pass Details

Date: 14 June 2021
Orbit: 824 x 835 km, 98.5° (Epoch: 04 August)

Event Time Altitude Azimuth Distance (km) Brightness Sun altitude
Rises 20:02:42 0° 12° (NNE) 3,367 7.4 -30.6°
Reaches altitude 10° 20:05:03 10° 12° (NNE) 2,436 6.5 -30.1°
Enters shadow 20:09:55 73° 8° (N) 870 3.7 -29.1°
